Regional Weather Roundup
Issued by NWS Charleston, SC

Current Version | Previous Version | Graphics & Text | Print | Product List | Glossary On
Versions: 1 2 3 4 5 6 7 8 9 10 11 12 13 14 15 16 17 18 19 20 21 22 23 24 25 26 27 28 29 30 31 32 33 34 35 36 37 38 39 40 41 42 43 44 45 46 47 48 49 50
000
ASUS42 KCHS 050227
RWRCHS

REGIONAL WEATHER ROUNDUP
NATIONAL WEATHER SERVICE CHARLESTON SC
1000 PM EDT MON MAY 04 2015

NOTE: "FAIR" INDICATES FEW OR NO CLOUDS BELOW 12,000 FEET WITH NO
SIGNIFICANT WEATHER AND/OR OBSTRUCTIONS TO VISIBILITY.

NOT ALL STATIONS ARE QUALITY CONTROLLED BY THE NATIONAL
WEATHER SERVICE. USE DATA WITH CAUTION...ESPECIALLY
DEWPOINT OBSERVATIONS.

SCZ027-030-031-034>040-042>050-050300-
...SOUTHEAST SOUTH CAROLINA...

CITY           SKY/WX    TMP DP  RH WIND       PRES   REMARKS
N CHARLESTON   PTCLDY    68  55  63 E6        30.32R
WATERFRONT PRK   N/A     70 N/A N/A E9          N/A
MOUNT PLEASANT FAIR      63  57  82 MISG      30.32S
PINOPOLIS      NOT AVBL
MONCKS CORNER  FAIR      63  55  77 CALM      30.32R
SUMMERVILLE    FAIR      61  57  88 CALM      30.33R
BEAUFORT MCAS  CLEAR     69  60  73 E5        30.31R
BEAUFORT ARPT  FAIR      64  61  88 CALM      30.31R
HILTON HEAD IS CLEAR     70  63  78 NE3       30.32R
WALTERBORO     CLEAR     61  55  82 E3        30.33R
ALLENDALE      FAIR      66  55  68 CALM      30.31R

...SOUTHERN MIDLANDS AND PEE DEE...

CITY           SKY/WX    TMP DP  RH WIND       PRES   REMARKS
GEORGETOWN     NOT AVBL
KINGSTREE      NOT AVBL
ORANGEBURG     CLEAR     66  54  65 S5        30.32R
BARNWELL       FAIR      66  55  68 S3        30.32R
AIKEN          FAIR      63  52  67 SE5       30.35R
MANNING        FAIR      63  54  72 CALM      30.33R
COLUMBIA       CLEAR     70  55  59 S3        30.30R
SUMTER         CLEAR     68  55  62 S6        30.30R
FLORENCE       CLEAR     66  55  67 S7        30.32R
MYRTLE BEACH   CLEAR     70  57  64 S12       30.35R
N MYRTLE BEACH CLEAR     70  57  63 S6        30.33R

$$

GAZ063-065-086>088-099>101-113>116-118-119-134>141-150-050300-
...SOUTHEAST GEORGIA...

CITY           SKY/WX    TMP DP  RH WIND       PRES   REMARKS
SAVANNAH ARPT  PTCLDY    67  56  67 E5        30.30R
HUNTER AAF     CLEAR     67  61  81 VRB5      30.28
FORT STEWART   NOT AVBL
STATESBORO       N/A     61  56  83 CALM      30.31R
SYLVANIA       CLEAR     62  58  86 CALM      30.32R
CLAXTON        FAIR      61  59  94 CALM      30.31R

...CSRA...CENTRAL AND FAR SOUTHEAST GEORGIA...

CITY           SKY/WX    TMP DP  RH WIND       PRES   REMARKS
THOMSON        CLEAR     71  60  67 SE5       30.34R
AUGUSTA-BUSH   CLEAR     65  56  72 S6        30.30R
AUGUSTA-DANIEL CLEAR     71  55  56 S7        30.31R
SWAINSBORO     NOT AVBL
VIDALIA        CLEAR     68  55  64 SE3       30.30R
EASTMAN        FAIR      68  58  69 SE3       30.31R
HAZLEHURST     FAIR      69  56  64 SE3       30.28R
ALMA           CLEAR     66  53  63 E5        30.28R
WAYCROSS       PTCLDY    65  58  78 E3        30.29R
JESUP          FAIR      64  59  82 CALM      30.30R
BAXLEY         FAIR      68  55  64 CALM      30.29R
BRUNSWICK      CLEAR     64  59  82 CALM      30.29S
SAINT SIMONS   MOCLDY    71  62  73 E9        30.28R

$$

SCZ027-028-034-036>038-045-046-048>050-GAZ119-141-050300-
...LAKE AND SUPPLEMENTAL COASTAL OBSERVATIONS...

STATION/POSITION TIME  TEMP    WIND        PRES    WAVE   SWELL
                       AIR SEA DIR/SP/G            HT/PER HT/PER/DIR
                 (UTC) (F)     (DEG/KT/KT) (MB)    (FT/S) (FT/S/D)
UPR LAKE MARION  NOT AVBL
WINYAH BAY       0100   71     120/  5     1026.0
LAKE MURRAY      0200   71     170/  8/ 11 1025.4R
ACE BASIN NERRS  NOT AVBL
FORT PULASKI     0100   71 71   60/ 10/ 11 1026.2R
SAPELO ISLAND    0200   66      70/  3     1025.0S

$$

ANZ835-935-AMZ111-154-330-350-352-354-370-450-454-472-050300-
...C-MAN AND BUOY OBSERVATIONS...

STATION/POSITION TIME  TEMP    WIND        PRES    WAVE   SWELL
                       AIR SEA DIR/SP/G            HT/PER HT/PER/DIR
                 (UTC) (F)     (DEG/KT/KT) (MB)    (FT/S) (FT/S/D)
BUOY 41004       0150   73 74  100/ 14/ 17 1025.8R   4/10   2/10
BUOY 41008       0150   71 71   60/  4/  6 1025.7R   3/ 6   3/100/ 6
FOLLY BEACH CMAN 0200   71     110/  8/  9 1026.7R
CAPERS NEARSHORE 0108   71     120/  8/ 10 1026.4R
FRIPP NEARSHORE  0100   71      70/ 10/ 12 1024.9R


STATION/POSITION TIME  TEMP    WIND        PRES    WAVE   SWELL
                       AIR SEA DIR/SP/G            HT/PER HT/PER/DIR
                 (UTC) (F)     (DEG/KT/KT) (MB)    (FT/S) (FT/S/D)
5E ST. MARYS GA  0121      72                N/A     3/ 5   2/ 70/11
FRYING PAN BUOY  0150   74 73  140/ 12/ 14 1028.2R   3/10   2/ 90/10
BUOY 41025       0150   74 77  190/ 14/ 16 1027.6R   4/11   3/ 70/11
CAPE LOOKOUT NC  0200   69     180/  6/  7 1027.4R
BUOY 41002       0150   69 70  100/ 16/ 19 1027.5R   5/10   3/ 50/10
BUOY 41010       0120   74 78   80/ 17/ 21 1023.1R
ST AUGUSTINE FL  0200   72 72  100/  8/  9 1024.9R


$$



USA.gov is the U.S. government's official web portal to all federal, state and local government web resources and services.